Weather History for CWSA - January, 2013

Change the Weather History Date:

Saturday, January 12, 2013

  Actual Average Record
Temperature  
Mean Temperature 34 °F -  
Max Temperature 37 °F 35 °F 50 °F (2006)
Min Temperature 30 °F 25 °F 21 °F (2004)
Degree Days  
Heating Degree Days 32    
Moisture  
Dew Point 28 °F    
Average Humidity 75    
Maximum Humidity 81    
Minimum Humidity 62    
Precipitation  
Precipitation 0.00 in - - ()
Sea Level Pressure  
Sea Level Pressure 30.04 in    
Wind  
Wind Speed 22 mph ()    
Max Wind Speed 29 mph    
Max Gust Speed 37 mph    
Visibility 6.4 miles    
Events      
Averages and records for this station are not official NWS values.
T = Trace of Precipitation, MM = Missing Value Source: Averaged Metar Reports

Daily Weather History Graph

Daily Weather History Graph

Search for Another Location

Airport or City:

Trip Planner

Search our weather history database for the weather conditions in past years. The results will help you decide how hot, cold, wet, or windy it might be!

Date:

Astronomy

Jan. 12, 2013 Rise Set
Actual Time 7:32 AM AST 4:44 PM AST
Civil Twilight 7:00 AM AST 5:16 PM AST
Nautical Twilight 6:24 AM AST 5:52 PM AST
Astronomical Twilight 5:49 AM AST 6:27 PM AST
Moon 7:44 AM AST (1/12) 6:11 PM AST (1/12)
Length of Visible Light 10h 16m
Length of Day
9h 12m
New Moon, 1% of the Moon is Illuminated
Jan 12
New Moon
Jan 18
First Quarter
Jan 27
Full
Feb 3
Last Quarter
Feb 10
New

Hourly Weather History & Observations

Time (AST) Temp. Windchill Dew Point Humidity Pressure Visibility Wind Dir Wind Speed Gust Speed Precip Events Conditions
12:00 AM 30.2 °F 16.2 °F 23.0 °F 75% 30.10 in 6.0 mi North 25.3 mph 36.8 mph N/A   Overcast
1:00 AM 30.2 °F 15.4 °F 23.0 °F 75% 30.09 in 6.0 mi North 28.8 mph 35.7 mph N/A   Overcast
2:00 AM 32 °F - 24 °F 64% 30.08 in 6 mi North 27.6 mph - -   Unknown Precipitation
2:00 AM 32.0 °F 18.1 °F 24.8 °F 75% 30.08 in 6.0 mi North 27.6 mph 34.5 mph N/A   Overcast
4:00 AM 32.0 °F 19.2 °F 26.6 °F 80% 30.08 in 6.0 mi North 23.0 mph 34.5 mph N/A   Overcast
4:44 AM 33.8 °F 21.3 °F 26.6 °F 75% 30.07 in 6.0 mi North 24.2 mph 34.5 mph N/A   Overcast
5:00 AM 33 °F - 26 °F 65% 30.07 in 6 mi North 28.8 mph - -   Overcast
6:00 AM 33.8 °F 21.6 °F 26.6 °F 75% 30.08 in 6.0 mi North 23.0 mph 34.5 mph N/A   Overcast
7:00 AM 33.8 °F 20.8 °F 26.6 °F 75% 30.09 in 6.0 mi North 26.5 mph 35.7 mph N/A   Overcast
8:00 AM 33 °F - 26 °F 67% 30.09 in 6 mi North 26.5 mph - -   Unknown Precipitation
8:00 AM 33.8 °F 20.5 °F 26.6 °F 75% 30.09 in 6.0 mi North 27.6 mph 33.4 mph N/A   Mostly Cloudy
8:07 AM 33.8 °F 21.0 °F 26.6 °F 75% 30.08 in 6.0 mi North 25.3 mph 33.4 mph N/A   Overcast
9:00 AM 33.8 °F 21.0 °F 28.4 °F 81% 30.09 in 5.0 mi North 25.3 mph 31.1 mph N/A   Overcast
10:00 AM 33.8 °F 21.6 °F 26.6 °F 75% 30.08 in 6.0 mi North 23.0 mph 29.9 mph N/A   Overcast
11:00 AM 34 °F - 28 °F 69% 30.06 in 6 mi North 24.2 mph - -   Overcast
11:00 AM 33.8 °F 21.3 °F 28.4 °F 81% 30.06 in 6.0 mi North 24.2 mph 32.2 mph N/A   Overcast
12:00 PM 35.6 °F 25.2 °F 28.4 °F 75% 30.05 in 6.0 mi NNW 18.4 mph 32.2 mph N/A   Overcast
2:00 PM 35 °F - 29 °F 71% 30.02 in 6 mi North 24.2 mph - -   Overcast
2:00 PM 35.6 °F 23.2 °F 28.4 °F 75% 30.02 in 6.0 mi NNW 26.5 mph 32.2 mph N/A   Overcast
2:58 PM 35.6 °F 23.4 °F 28.4 °F 75% 30.00 in 7.0 mi North 25.3 mph 31.1 mph N/A   Scattered Clouds
3:00 PM 35.6 °F 24.0 °F 30.2 °F 81% 30.00 in 7.0 mi North 23.0 mph 31.1 mph N/A   Partly Cloudy
4:00 PM 35.6 °F 23.4 °F 28.4 °F 75% 30.01 in 7.0 mi North 25.3 mph - N/A   Clear
5:00 PM 37 °F - 29 °F 62% 30.00 in 7 mi North 23.0 mph - -  
5:00 PM 37.4 °F 26.4 °F 28.4 °F 70% 30.00 in 7.0 mi North 23.0 mph 29.9 mph N/A   Clear
6:00 PM 37.4 °F 27.2 °F 30.2 °F 75% 30.00 in 7.0 mi NNW 19.6 mph 28.8 mph N/A   Clear
7:00 PM 37.4 °F 26.4 °F 30.2 °F 75% 30.01 in 8.0 mi North 23.0 mph - N/A   Clear
8:00 PM 37 °F - 31 °F 73% 29.99 in 7 mi North 20.7 mph - -  
8:00 PM 37.4 °F 26.9 °F 32.0 °F 81% 29.99 in 7.0 mi North 20.7 mph - N/A   Partly Cloudy
9:00 PM 37.4 °F 26.9 °F 32.0 °F 81% 29.98 in 7.0 mi North 20.7 mph 28.8 mph N/A   Partly Cloudy
10:00 PM 37.4 °F 26.4 °F 32.0 °F 81% 29.99 in 7.0 mi North 23.0 mph 28.8 mph N/A   Partly Cloudy
10:37 PM 37.4 °F 27.5 °F 32.0 °F 81% 29.97 in 7.0 mi NNW 18.4 mph 28.8 mph N/A   Mostly Cloudy
11:00 PM 37 °F - 32 °F 75% 29.98 in 6 mi NNW 21.9 mph - -   Overcast
11:00 PM 37.4 °F 26.9 °F 32.0 °F 81% 29.98 in 6.0 mi North 20.7 mph 29.9 mph N/A   Overcast
11:27 PM 37.4 °F 26.4 °F 32.0 °F 81% 29.97 in 7.0 mi North 23.0 mph 29.9 mph N/A   Clear